{"data":{"norad_id":61578,"intl_designator":"2024-187E","name":"STARLINK-11285 [DTC]","alt_names":[],"object_type":"PAYLOAD","status":"ACTIVE","operator":null,"country":"US","launch_date":"2024-10-18","launch_site_code":"AFETR","launch_vehicle":null,"mission":null,"orbit_class":"UNKNOWN","rcs_meters":null,"size_class":null,"mass_kg":null,"dimensions":null,"purposes":["comms"],"wikipedia_slug":null,"has_3d_model":false,"image_url":null,"decayed_at":null,"tle_current":{"epoch":"2026-09-21T17:32:51.671040Z","epoch_age_seconds":86022,"freshness":"FRESH","line1":"1 61578U 24187E   26264.73115360 -.00000361  00000+0  18778-5 0  9991","line2":"2 61578  53.1624  49.6296 0001176  64.6237 295.4902 15.69710306111494","mean_motion":15.69710306,"eccentricity":0.0001176,"inclination_deg":53.1624,"raan_deg":49.6296,"arg_perigee_deg":64.6237,"mean_anomaly_deg":295.4902,"bstar":1.8778e-6,"rev_number":11149,"period_min":91.736672333475,"perigee_km":358.93350209098,"apogee_km":360.51824743913,"semimajor_km":6737.8628747651,"source":"CELESTRAK","updated_at":"2026-09-22T09:00:49.390776Z"}}}